Tracking 25689 objects as of 7-Jul-2022
HD Live streaming from Space Station
objects crossing your sky now

FENGYUN 1C DEB

Track FENGYUN 1C DEB now!
10-day predictions


NORAD ID: 31622
Int'l Code: 1999-025CAC
Perigee: 817.4 km
Apogee: 847.2 km
Inclination: 98.9 °
Period: 101.4 minutes
Semi major axis: 7203 km
RCS: 0.0179 m2 (small)
Launch date: May 10, 1999
Source: People's Republic of China (PRC)
Launch site: Taiyaun Space Center, China (TSC)

Note: This is SATELLITE DEBRIS
aabbcc
Your satellite tracking list
Your tracking list is empty




NASA's NSSDC Master Catalog

Two Line Element Set (TLE):
1 31622U 99025CAC 22187.67884094  .00001293  00000-0  62681-3 0  9996
2 31622  98.8755 253.3759 0020645  34.2798 115.7072 14.20057456778719
Source of the keplerian elements: AFSPC